Flag for Poland Weather past 2 weeks in Bydgoszcz, Poland

Now
57 °F

Partly sunny.


Feels Like: 57 °F
Forecast: 42 / 55 °F
Wind: 2 mph from West

Location: Torun

Current Time: Sep 22, 2014 at 2:22:59 PM

Latest Report: Sep 22, 2014 at 1:00 PM


Visibility: 22 mi

Pressure: 29.69 "Hg

Humidity: 75%

Dew point: 49 °F

Location of BydgoszczLocation

Historic Weather in Bydgoszcz — Graph

°F

Bydgoszcz temperature yesterday

Maximum temperature yesterday: 71 °F (at 12:00 PM)
Minimum temperature yesterday: 47 °F (at 5:00 AM)
Average temperature yesterday: 57 °F

Past Weeks' High & Low Weather Summary

 TemperatureHumidityPressure
High81 °F (Sep 14, 3:00 PM)100% (Sep 9, 12:00 AM)30.25 "Hg (Sep 9, 12:00 AM)
Low47 °F (Sep 21, 5:00 AM)32% (Sep 14, 4:00 PM)29.67 "Hg (Sep 22, 5:00 AM)
Average62 °F73%30.04 "Hg
* Reported Sep 7 1:00 PM — Sep 22 1:00 PM, Bydgoszcz, Weather by CustomWeather, © 2014

Note: Actual official high and low records may vary slightly from our data, if they occured in-between our weather recording intervals... More about our weather records

Advertising

Bydgoszcz weather history for previous 24 hours

 ConditionsComfort  
Time TempWeatherWind HumidityBarometerVisibility
1:00 PM
Sep 22
57 °FPartly sunny.2 mph75%29.69 "Hg22 mi
12:00 PM60 °FPartly sunny.3 mph67%29.68 "Hg19 mi
11:00 AM56 °FOvercast.3 mph77%29.68 "Hg17 mi
10:00 AM56 °FPartly sunny.3 mph83%29.68 "Hg10 mi
9:00 AM53 °FOvercast.3 mph90%29.68 "Hg7 mi
8:00 AM52 °FFog.2 mph92%29.68 "Hg6 mi
7:00 AM53 °FFog.2 mph93%29.68 "Hg5 mi
6:00 AM54 °FOvercast.2 mph94%29.67 "Hg6 mi
5:00 AM54 °FOvercast.2 mph94%29.67 "Hg6 mi
4:00 AM55 °FSprinkles. Overcast.2 mph95%29.68 "Hg6 mi
3:00 AM56 °FFog.2 mph95%29.68 "Hg4 mi
2:00 AM57 °FFog.2 mph95%29.70 "Hg4 mi
1:00 AM57 °FFog.2 mph95%29.70 "Hg3 mi
12:00 AM57 °FFog.2 mph96%29.71 "Hg3 mi
11:00 PM
Sep 21
58 °FOvercast.2 mph95%29.71 "Hg4 mi
10:00 PM58 °FFog.1 mph94%29.72 "Hg4 mi
9:00 PM60 °FFog.2 mph97%29.73 "Hg2 mi
8:00 PM59 °FFog.No wind95%29.73 "Hg1 mi
7:00 PM60 °FFog.1 mph95%29.73 "Hg1 mi
6:00 PM61 °FFog.1 mph95%29.73 "Hg2 mi
5:00 PM62 °FThunderstorms. Low clouds.1 mph95%29.74 "Hg2 mi
4:00 PM61 °FThundershowers. Low clouds.1 mph95%29.75 "Hg2 mi
3:00 PM61 °FThundershowers. Overcast.2 mph93%29.76 "Hg1 mi
2:00 PM60 °FSprinkles. Overcast.2 mph86%29.77 "Hg6 mi
Weather by CustomWeather, © 2014

See weather overviewHow to use our weather pages